EW5196 Weather Reports


time (UTC)temp
C
wind
direction
speed
KPH
gust
KPH
rain 1hr
cm
rain 24hr
cm
rain mn
cm
humidity
%
barometer
mb
20260906134844 23 178 0.0 4.8 0.00 0.00 0.00 80 1016.5
20260906134339 23 187 0.0 3.2 0.00 0.00 0.00 77 1016.6
20260906133834 23 144 0.0 6.4 0.00 0.00 0.00 79 1016.3
20260906133324 23 196 4.8 4.8 0.00 0.00 0.00 78 1016.4
20260906132820 23 185 1.6 6.4 0.00 0.00 0.00 79 1016.3
20260906132315 22 210 3.2 6.4 0.00 0.00 0.00 82 1016.4
20260906131810 22 211 4.8 9.7 0.00 0.00 0.00 81 1016.2
20260906131305 22 222 1.6 8.0 0.00 0.00 0.00 84 1016.2
20260906130801 22 253 0.0 8.0 0.00 0.00 0.00 85 1016.0
20260906130256 21 283 4.8 4.8 0.00 0.00 0.00 86 1016.1
20260906125754 21 210 3.2 4.8 0.00 0.00 0.00 87 1016.1
20260906125252 21 185 3.2 4.8 0.00 0.00 0.00 87 1016.2
20260906124752 21 178 0.0 4.8 0.00 0.00 0.00 88 1016.1
20260906124249 21 156 0.0 3.2 0.00 0.00 0.00 90 1016.5
20260906123747 21 177 0.0 1.6 0.00 0.00 0.00 89 1016.6
20260906123242 21 181 3.2 4.8 0.00 0.00 0.00 89 1016.2
20260906122742 21 158 1.6 4.8 0.00 0.00 0.00 90 1016.2
20260906122237 21 104 3.2 4.8 0.00 0.00 0.00 89 1016.2
20260906121734 21 170 3.2 3.2 0.00 0.00 0.00 89 1016.3
20260906121230 21 164 3.2 3.2 0.00 0.00 0.00 90 1016.2
20260906120725 21 174 1.6 3.2 0.00 0.00 0.00 91 1015.9
20260906120222 21 164 3.2 4.8 0.00 0.00 0.00 91 1015.9
20260906115717 21 224 1.6 4.8 0.00 0.00 0.00 92 1015.7
20260906115212 21 199 0.0 4.8 0.00 0.00 0.00 92 1015.8
20260906114711 21 176 3.2 4.8 0.00 0.00 0.00 93 1015.6
20260906114206 21 137 1.6 3.2 0.00 0.00 0.00 95 1015.9
20260906113701 21 155 3.2 3.2 0.00 0.00 0.00 95 1015.6
20260906113201 21 117 1.6 1.6 0.00 0.00 0.00 96 1015.6
20260906112700 21 149 0.0 3.2 0.00 0.00 0.00 96 1015.6
20260906112158 21 154 3.2 4.8 0.00 0.00 0.00 97 1015.5
20260906111657 21 141 3.2 4.8 0.00 0.00 0.00 98 1015.2
20260906111151 21 188 3.2 3.2 0.00 0.00 0.00 98 1015.3
20260906110646 21 157 1.6 3.2 0.00 0.00 0.00 99 1015.1
20260906110142 21 160 0.0 1.6 0.00 0.00 0.00 99 1015.0
20260906105636 21 140 0.0 3.2 0.00 0.00 0.00 99 1014.9
20260906105132 21 148 3.2 4.8 0.00 0.00 0.00 99 1015.1
20260906104632 21 152 1.6 3.2 0.00 0.00 0.00 99 1015.0
20260906104131 21 150 0.0 3.2 0.00 0.00 0.00 99 1014.8
20260906103629 21 196 0.0 3.2 0.00 0.00 0.00 99 1015.0
20260906103124 21 172 0.0 1.6 0.00 0.00 0.00 99 1015.0
20260906102619 21 168 1.6 3.2 0.00 0.00 0.00 99 1014.9
20260906102114 21 170 3.2 3.2 0.00 0.00 0.00 99 1014.8
20260906101615 21 157 3.2 3.2 0.00 0.00 0.00 99 1014.6
20260906101115 21 152 1.6 3.2 0.00 0.00 0.00 99 1014.7
20260906100610 21 154 3.2 3.2 0.00 0.00 0.00 99 1014.6
20260906100110 21 162 3.2 3.2 0.00 0.00 0.00 99 1014.5
20260906095610 21 155 3.2 3.2 0.00 0.00 0.00 99 1014.3
20260906095105 21 168 0.0 3.2 0.00 0.00 0.00 99 1014.2
20260906094604 21 147 3.2 3.2 0.00 0.00 0.00 99 1014.3
20260906094101 21 171 0.0 1.6 0.00 0.00 0.00 99 1014.4
20260906093556 21 155 1.6 1.6 0.00 0.00 0.00 99 1014.3
20260906093051 21 144 1.6 3.2 0.00 0.00 0.00 99 1014.4
20260906092546 21 145 1.6 4.8 0.00 0.00 0.00 99 1014.2
20260906092041 21 157 1.6 3.2 0.00 0.00 0.00 99 1013.9
20260906091537 21 178 1.6 3.2 0.00 0.00 0.00 99 1014.0
20260906091033 21 149 3.2 3.2 0.00 0.00 0.00 99 1013.9
20260906090528 21 160 0.0 0.0 0.00 0.00 0.00 99 1013.9
20260906090023 21 109 0.0 1.6 0.00 0.00 0.00 99 1013.8
20260906085521 21 80 0.0 1.6 0.00 0.00 0.00 99 1014.0
20260906085021 21 160 1.6 3.2 0.00 0.00 0.00 99 1013.7
20260906084516 21 168 1.6 3.2 0.00 0.00 0.00 99 1013.9
20260906084014 21 147 0.0 3.2 0.00 0.00 0.00 99 1013.8
20260906083511 22 184 1.6 3.2 0.00 0.00 0.00 99 1013.8
20260906083010 22 146 0.0 1.6 0.00 0.00 0.00 99 1013.8
20260906082505 22 160 0.0 3.2 0.00 0.00 0.00 99 1013.8
20260906082001 22 143 0.0 3.2 0.00 0.00 0.00 99 1013.8
20260906081456 22 165 0.0 3.2 0.00 0.00 0.00 99 1013.7
20260906080952 22 151 0.0 3.2 0.00 0.00 0.00 99 1013.7
20260906080449 22 107 0.0 1.6 0.00 0.00 0.00 99 1013.7
20260906075949 22 163 0.0 1.6 0.00 0.00 0.00 99 1013.6
20260906075444 22 136 0.0 1.6 0.00 0.00 0.00 99 1013.6
20260906074939 22 146 1.6 1.6 0.00 0.00 0.00 99 1013.5
20260906074433 22 159 0.0 3.2 0.00 0.00 0.00 99 1013.4
20260906073931 22 146 0.0 1.6 0.00 0.00 0.00 99 1013.6
20260906073426 22 191 1.6 1.6 0.00 0.00 0.00 99 1013.5
20260906072923 22 205 1.6 4.8 0.00 0.00 0.00 99 1013.5
20260906072418 22 146 3.2 3.2 0.00 0.00 0.00 99 1013.5
20260906071914 22 143 1.6 3.2 0.00 0.00 0.00 99 1013.7
20260906071409 22 172 0.0 3.2 0.00 0.00 0.00 99 1013.5
20260906070905 22 165 3.2 3.2 0.00 0.00 0.00 99 1013.5
20260906070401 22 143 1.6 3.2 0.00 0.00 0.00 99 1013.4
20260906065856 22 132 1.6 3.2 0.00 0.00 0.00 99 1013.4
20260906065350 22 184 1.6 1.6 0.00 0.00 0.00 99 1013.6
20260906064846 22 151 3.2 3.2 0.00 0.00 0.00 99 1013.2
20260906064342 22 133 1.6 3.2 0.00 0.00 0.00 99 1013.2
20260906063836 22 147 0.0 1.6 0.00 0.00 0.00 99 1013.4
20260906063332 22 185 3.2 3.2 0.00 0.00 0.00 99 1013.7
20260906062827 22 162 3.2 3.2 0.00 0.00 0.00 99 1013.9
20260906062326 22 159 1.6 3.2 0.00 0.00 0.00 99 1013.5
20260906061822 22 149 1.6 3.2 0.00 0.00 0.00 99 1013.8
20260906061318 22 135 3.2 3.2 0.00 0.00 0.00 99 1013.7
20260906060813 22 148 1.6 3.2 0.00 0.00 0.00 99 1013.7
20260906060310 22 139 1.6 3.2 0.00 0.00 0.00 99 1013.8
20260906055806 22 125 1.6 3.2 0.00 0.00 0.00 99 1013.9
20260906055301 22 186 1.6 3.2 0.00 0.00 0.00 99 1013.9
20260906054756 22 128 0.0 1.6 0.00 0.00 0.00 99 1013.9
20260906054252 22 270 1.6 3.2 0.00 0.00 0.00 99 1013.9
20260906053748 22 157 1.6 1.6 0.00 0.00 0.00 99 1013.8
20260906053244 22 178 3.2 4.8 0.00 0.00 0.00 99 1013.9
20260906052738 22 168 3.2 4.8 0.00 0.00 0.00 99 1013.7
20260906052235 22 176 1.6 3.2 0.00 0.00 0.00 99 1014.0
20260906051731 22 156 1.6 3.2 0.00 0.00 0.00 99 1014.1
20260906051231 22 142 1.6 3.2 0.00 0.00 0.00 99 1014.2
20260906050727 22 134 1.6 3.2 0.00 0.00 0.00 99 1014.1
20260906050222 22 165 0.0 1.6 0.00 0.00 0.00 99 1014.1
20260906045720 22 149 1.6 3.2 0.00 0.00 0.00 99 1014.1
20260906045216 22 154 0.0 3.2 0.00 0.00 0.00 99 1014.2
20260906044711 22 149 3.2 3.2 0.00 0.00 0.00 99 1014.0
20260906044206 22 157 1.6 3.2 0.00 0.00 0.00 99 1014.1
20260906043702 22 180 0.0 3.2 0.00 0.00 0.00 99 1014.0
20260906043158 22 174 3.2 3.2 0.00 0.00 0.00 99 1013.9
20260906042657 22 180 1.6 3.2 0.00 0.00 0.00 99 1013.9
20260906042151 22 175 1.6 1.6 0.00 0.00 0.00 99 1013.9
20260906041647 22 205 1.6 1.6 0.00 0.00 0.00 99 1014.2
20260906041142 21 180 1.6 3.2 0.00 0.00 0.00 99 1014.2
20260906040637 21 152 1.6 3.2 0.00 0.00 0.00 99 1013.9
20260906040133 21 256 0.0 1.6 0.00 0.00 0.00 99 1014.1
20260906035628 21 140 0.0 3.2 0.00 1.17 1.17 99 1014.2
20260906035123 21 161 3.2 3.2 0.00 1.17 1.17 99 1014.1
20260906034617 21 173 1.6 3.2 0.00 1.17 1.17 99 1014.3
20260906034112 21 127 3.2 3.2 0.00 1.17 1.17 99 1014.1
20260906033609 21 167 0.0 1.6 0.00 1.17 1.17 99 1014.1
20260906033103 21 168 3.2 4.8 0.00 1.17 1.17 99 1014.0
20260906032600 21 205 0.0 3.2 0.00 1.17 1.17 99 1013.8
20260906032059 21 165 1.6 3.2 0.00 1.17 1.17 99 1014.2
20260906031555 22 152 1.6 3.2 0.00 1.17 1.17 99 1014.1
20260906031050 22 140 3.2 3.2 0.00 1.17 1.17 99 1013.9
20260906030549 22 111 0.0 1.6 0.00 1.17 1.17 99 1013.8
20260906030044 22 159 0.0 3.2 0.00 1.17 1.17 99 1014.1
20260906025544 22 171 0.0 1.6 0.00 1.17 1.17 99 1014.0
20260906025042 22 142 0.0 1.6 0.00 1.17 1.17 99 1013.9
20260906024538 22 139 1.6 3.2 0.00 1.17 1.17 99 1014.0
20260906024037 22 160 1.6 1.6 0.00 1.17 1.17 99 1013.9
20260906023534 22 190 0.0 0.0 0.00 1.17 1.17 99 1013.9
20260906023028 22 137 0.0 1.6 0.00 1.17 1.17 98 1014.0
20260906022523 22 139 0.0 1.6 0.00 1.17 1.17 98 1014.2
20260906022019 22 140 1.6 1.6 0.00 1.17 1.17 98 1014.1
20260906021514 22 147 0.0 0.0 0.00 1.17 1.17 98 1014.1
20260906021008 22 147 0.0 0.0 0.00 1.17 1.17 98 1014.1
20260906020508 22 134 0.0 1.6 0.00 1.17 1.17 98 1014.3
20260906020007 22 138 1.6 3.2 0.00 1.17 1.17 98 1014.2
20260906015506 22 119 0.0 0.0 0.00 1.17 1.17 98 1014.0
20260906015001 22 119 0.0 0.0 0.00 1.17 1.17 98 1013.9
20260906014455 22 119 0.0 1.6 0.00 1.17 1.17 98 1014.0
20260906013951 22 147 0.0 1.6 0.00 1.17 1.17 98 1013.9
20260906013447 22 191 1.6 1.6 0.00 1.17 1.17 98 1013.7
20260906012942 22 172 0.0 3.2 0.00 1.17 1.17 98 1013.8
20260906012437 23 169 1.6 3.2 0.00 1.17 1.17 98 1013.7
20260906011936 23 165 0.0 3.2 0.00 1.17 1.17 98 1013.6
20260906011432 23 172 0.0 1.6 0.00 1.17 1.17 98 1013.6
20260906010927 22 184 0.0 0.0 0.00 1.17 1.17 98 1013.4
20260906010422 22 175 0.0 3.2 0.00 1.17 1.17 97 1013.5
20260906005918 22 188 1.6 3.2 0.00 1.17 1.17 97 1013.2
20260906005418 22 154 0.0 0.0 0.00 1.17 1.17 97 1013.1
20260906004916 22 144 0.0 1.6 0.00 1.17 1.17 97 1013.0
20260906004411 23 125 1.6 3.2 0.00 1.17 1.17 96 1013.2
20260906003907 23 140 1.6 1.6 0.00 1.17 1.17 96 1013.1
20260906003402 23 157 1.6 3.2 0.00 1.17 1.17 97 1013.0
20260906002857 23 203 0.0 1.6 0.00 1.17 1.17 96 1013.0
20260906002356 23 191 1.6 3.2 0.00 1.17 1.17 96 1013.1
20260906001851 23 161 1.6 3.2 0.00 1.17 1.17 96 1012.6
20260906001347 23 170 1.6 3.2 0.00 1.17 1.17 96 1012.8
20260906000843 23 177 0.0 0.0 0.00 1.17 1.17 96 1012.5
20260906000342 23 159 0.0 1.6 0.00 1.17 1.17 95 1012.4
20260905235843 23 135 1.6 3.2 0.00 1.17 1.17 95 1012.5
20260905235337 23 168 1.6 1.6 0.00 1.17 1.17 95 1012.3
20260905234832 23 159 0.0 1.6 0.00 1.17 1.17 95 1012.6
20260905234328 23 127 1.6 3.2 0.00 1.17 1.17 95 1012.6
20260905233823 23 126 1.6 1.6 0.00 1.17 1.17 94 1012.5
20260905233318 23 183 1.6 3.2 0.00 1.17 1.17 94 1012.4
20260905232817 24 174 1.6 3.2 0.00 1.17 1.17 93 1012.1
20260905232313 24 149 0.0 3.2 0.00 1.17 1.17 91 1012.3
20260905231809 24 147 0.0 1.6 0.00 1.17 1.17 91 1011.9
20260905231303 24 242 0.0 0.0 0.00 1.17 1.17 90 1011.9
20260905230800 25 119 0.0 1.6 0.00 1.17 1.17 89 1012.3
20260905230257 25 164 0.0 1.6 0.00 1.17 1.17 87 1012.5
20260905225757 25 184 0.0 1.6 0.00 1.17 1.17 86 1012.7
20260905225252 25 166 0.0 1.6 0.00 1.17 1.17 85 1012.7
20260905224752 25 168 1.6 3.2 0.00 1.17 1.17 84 1012.7
20260905224247 26 180 1.6 1.6 0.00 1.17 1.17 83 1012.4
20260905223743 26 173 1.6 3.2 0.00 1.17 1.17 83 1012.6
20260905223240 26 182 0.0 3.2 0.00 1.17 1.17 82 1012.7
20260905222735 26 213 1.6 1.6 0.00 1.17 1.17 81 1012.6
20260905222234 26 233 0.0 1.6 0.00 1.17 1.17 81 1012.6
20260905221730 26 200 1.6 1.6 0.00 1.17 1.17 80 1012.6
20260905221227 26 204 1.6 3.2 0.00 1.17 1.17 81 1012.3
20260905220723 26 235 0.0 1.6 0.00 1.17 1.17 81 1012.5
20260905220219 26 147 0.0 3.2 0.00 1.17 1.17 84 1012.3
20260905215718 26 119 0.0 3.2 0.00 1.17 1.17 82 1012.3
20260905215214 26 143 1.6 1.6 0.00 1.17 1.17 83 1012.1
20260905214709 26 234 1.6 3.2 0.00 1.17 1.17 79 1012.2
20260905214205 26 226 0.0 3.2 0.00 1.17 1.17 80 1012.4
20260905213700 25 154 0.0 1.6 0.00 1.17 1.17 83 1012.3
20260905213156 25 190 3.2 3.2 0.00 1.17 1.17 87 1012.2
20260905212651 25 119 0.0 1.6 0.00 1.17 1.17 85 1012.3
20260905212150 25 79 1.6 3.2 0.00 1.17 1.17 86 1012.2
20260905211644 25 164 0.0 3.2 0.00 1.17 1.17 84 1012.4
20260905211140 25 221 4.8 4.8 0.00 1.17 1.17 85 1012.2
20260905210637 25 217 3.2 3.2 0.00 1.17 1.17 88 1012.5
20260905210137 25 255 1.6 4.8 0.00 1.17 1.17 88 1012.5
20260905205636 25 119 0.0 1.6 0.00 1.17 1.17 90 1012.6
20260905205130 25 134 0.0 0.0 0.00 1.17 1.17 91 1012.5
20260905204629 25 154 0.0 0.0 0.00 1.17 1.17 89 1012.6
20260905204125 25 92 0.0 0.0 0.00 1.17 1.17 89 1012.6
20260905203625 25 55 0.0 3.2 0.00 1.17 1.17 91 1012.6
20260905203120 25 210 0.0 3.2 0.00 1.17 1.17 89 1012.7
20260905202616 25 203 0.0 0.0 0.00 1.17 1.17 94 1012.5
20260905202111 24 259 0.0 0.0 0.00 1.17 1.17 96 1012.5
20260905201607 24 11 0.0 1.6 0.00 1.17 1.17 96 1012.5
20260905201106 23 174 1.6 1.6 0.00 1.17 1.17 96 1012.3
20260905200602 23 132 0.0 3.2 0.00 1.17 1.17 96 1012.2
20260905200056 23 63 0.0 1.6 0.00 1.17 1.17 96 1012.4
20260905195550 23 123 1.6 3.2 0.00 1.17 1.17 96 1012.4
20260905195045 23 205 1.6 3.2 0.00 1.17 1.17 96 1012.6
20260905194544 23 77 1.6 3.2 0.00 1.17 1.17 96 1012.6
20260905194038 23 198 0.0 4.8 0.00 1.17 1.17 96 1012.8
20260905193534 23 111 4.8 6.4 0.00 1.17 1.17 96 1012.7
20260905193029 23 159 3.2 6.4 0.00 1.17 1.17 97 1013.0
20260905192524 23 132 3.2 8.0 0.00 1.17 1.17 97 1012.9
20260905192021 23 176 3.2 3.2 0.00 1.17 1.17 98 1013.3
20260905191519 23 189 3.2 3.2 0.00 1.17 1.17 98 1013.1
20260905191018 23 174 3.2 3.2 0.00 1.17 1.17 98 1013.1
20260905190515 23 262 3.2 4.8 0.13 1.17 1.17 98 1013.2
20260905190010 23 184 0.0 3.2 0.23 1.17 1.17 98 1013.8
20260905185504 23 150 0.0 0.0 0.13 1.14 1.14 98 1013.6
20260905185003 23 126 0.0 3.2 0.00 1.12 1.12 98 1013.7
20260905184459 23 126 0.0 3.2 0.05 1.12 1.12 98 1013.6
20260905183957 23 187 3.2 3.2 0.13 1.12 1.12 98 1013.7
20260905183457 23 166 1.6 3.2 0.23 1.12 1.12 98 1013.4
20260905182951 23 165 0.0 3.2 0.43 1.09 1.09 97 1013.5
20260905182451 23 96 0.0 3.2 0.30 1.07 1.07 97 1013.7
20260905181946 22 214 1.6 4.8 0.05 1.04 1.04 97 1013.5
20260905181441 22 137 0.0 3.2 0.00 1.02 1.02 97 1013.0
20260905180940 23 78 1.6 3.2 0.00 1.02 1.02 96 1013.4
20260905180435 23 119 0.0 1.6 0.00 1.02 1.02 96 1013.6
20260905175930 23 91 1.6 3.2 0.00 1.02 1.02 95 1013.6
20260905175429 23 108 1.6 3.2 0.00 1.02 1.02 95 1013.6
20260905174925 23 137 1.6 3.2 0.00 1.02 1.02 95 1013.4
20260905174420 23 119 0.0 4.8 0.00 1.02 1.02 94 1013.7
20260905173916 22 194 0.0 3.2 0.00 1.02 1.02 95 1013.7
20260905173412 22 177 0.0 1.6 0.00 1.02 1.02 97 1013.9
20260905172907 22 185 3.2 3.2 0.00 1.02 1.02 98 1014.1
20260905172405 22 109 1.6 3.2 0.00 1.02 1.02 98 1013.8
20260905171901 22 109 1.6 4.8 0.00 1.02 1.02 97 1013.4
20260905171357 22 84 3.2 3.2 0.00 1.02 1.02 97 1013.7
20260905170854 22 77 0.0 3.2 0.00 1.02 1.02 97 1013.6
20260905170350 22 33 0.0 3.2 0.05 1.02 1.02 96 1013.9
20260905165848 21 210 0.0 3.2 0.13 1.02 1.02 96 1014.3
20260905165344 22 260 0.0 8.0 0.13 1.02 1.02 96 1014.9
20260905164838 22 217 0.0 4.8 0.13 0.99 0.99 96 1015.0
20260905164333 22 125 4.8 4.8 0.23 0.99 0.99 96 1015.4
20260905163828 22 113 0.0 12.9 0.79 0.99 0.99 96 1015.5
20260905163325 23 100 1.6 8.0 0.89 0.94 0.94 97 1015.3
20260905162821 23 149 1.6 3.2 0.71 0.84 0.84 96 1015.4
20260905162320 23 134 3.2 4.8 1.80 0.79 0.79 96 1015.5
20260905161815 23 157 3.2 4.8 2.82 0.71 0.71 95 1015.2
20260905161315 23 66 3.2 6.4 2.16 0.43 0.43 93 1015.2
20260905160812 24 140 4.8 8.0 0.97 0.18 0.18 92 1015.1
20260905160307 25 165 3.2 4.8 0.23 0.05 0.05 87 1014.9
20260905155801 26 236 0.0 3.2 0.13 0.03 0.03 85 1014.6
20260905155301 26 139 3.2 3.2 0.05 0.00 0.00 81 1014.3
20260905154754 26 156 3.2 8.0 0.00 0.00 0.00 79 1014.3
20260905154251 26 177 3.2 8.0 0.00 0.00 0.00 78 1013.7
20260905153746 26 176 4.8 4.8 0.00 0.00 0.00 79 1013.6
20260905153242 27 286 3.2 3.2 0.00 0.00 0.00 77 1013.8
20260905152736 27 123 0.0 1.6 0.00 0.00 0.00 76 1013.8
20260905152231 27 219 0.0 4.8 0.00 0.00 0.00 74 1013.9
20260905151730 27 261 4.8 8.0 0.00 0.00 0.00 74 1013.9
20260905151227 27 166 3.2 4.8 0.00 0.00 0.00 75 1014.1
20260905150726 27 292 0.0 8.0 0.00 0.00 0.00 74 1014.0
20260905150226 27 271 3.2 6.4 0.00 0.00 0.00 74 1013.9
20260905145723 27 249 4.8 4.8 0.00 0.00 0.00 74 1014.1
20260905145218 27 165 1.6 9.7 0.00 0.00 0.00 75 1014.2
20260905144717 27 184 0.0 6.4 0.00 0.00 0.00 76 1014.1
20260905144212 27 184 0.0 6.4 0.00 0.00 0.00 76 1014.1
20260905143711 27 207 4.8 11.3 0.00 0.00 0.00 73 1014.0
20260905143206 27 242 4.8 6.4 0.00 0.00 0.00 74 1013.8
20260905142704 28 203 0.0 6.4 0.00 0.00 0.00 73 1013.9
20260905142159 28 119 3.2 4.8 0.00 0.00 0.00 77 1013.8
20260905141654 28 128 3.2 3.2 0.00 0.00 0.00 76 1014.0
20260905141150 28 236 3.2 3.2 0.00 0.00 0.00 73 1013.9
20260905140645 28 161 0.0 3.2 0.00 0.00 0.00 74 1013.7
20260905140139 27 222 1.6 3.2 0.00 0.00 0.00 76 1013.8
20260905135634 27 237 1.6 4.8 0.00 0.00 0.00 77 1013.5
20260905135130 26 273 3.2 4.8 0.00 0.00 0.00 81 1013.7